Regional Weather Roundup
Issued by NWS

Home | Current Version | Previous Version | Text Only | Print | Product List | Glossary On
Versions: 1 2 3 4 5 6 7 8 9 10 11 12 13 14 15 16 17 18 19 20 21 22 23 24 25 26 27 28 29 30 31 32 33 34 35 36 37 38 39 40 41 42 43 44 45 46 47 48 49 50
000
ASUS43 KIND 260809
RWRIN

WEATHER ROUNDUP FOR INDIANA
NATIONAL WEATHER SERVICE INDIANAPOLIS IN
400 AM EDT WED APR 26 2017

NOTE: "FAIR" INDICATES FEW OR NO CLOUDS BELOW 12,000 FEET WITH NO
SIGNIFICANT WEATHER AND/OR OBSTRUCTIONS TO VISIBILITY.

* - STATION DOES NOT REPORT WEATHER SUCH AS PRECIPITATION OR FOG.

+ - STATION NOT QUALITY CONTROLLED BY THE NATIONAL WEATHER SERVICE.
    USE DATA WITH CAUTION...ESPECIALLY DEWPOINT AND RELATIVE
    HUMIDITY OBSERVATIONS.

INZ001>003-010>013-019-020-260900-
NORTHWEST INDIANA

CITY           SKY/WX    TMP DP  RH WIND       PRES   REMARKS
GARY /AIRPORT/ CLOUDY    68  53  59 SE8G18    29.53F
KNOX *+        MOCLDY    63  36  36 SE10      29.57F
LA PORTE +     CLOUDY    63  55  75 SE8       29.57F
MICHIGAN CITY+ CLOUDY    64  54  68 SE5       29.56F
MONTICELLO +   CLOUDY    64  55  70 SE8       29.57F
RENSSELAER +   CLOUDY    64  54  68 SE8       29.56F
VALPARAISO     CLOUDY    66  56  70 SE10      29.56F

$$

LMZ046-743>745-260900-
SOUTHERN LAKE MICHIGAN

STATION/POSITION TIME  TEMP    WIND        PRES    WAVE
                       AIR SEA DIR/SP/G            HT
                 (UTC) (F)     (DEG/KT/KT) (MB)    (FT)
BURNS HARBOR     0740   68     160/ 10/ 19 1000.7F
MICHIGAN CITY    0740   66     150/ 10/ 12   N/A

$$

INZ004-005-014>016-021>024-260900-
NORTH CENTRAL INDIANA

CITY           SKY/WX    TMP DP  RH WIND       PRES   REMARKS
GOSHEN         PTCLDY    63  53  70 SE13      29.61F
LOGANSPORT +   CLOUDY    59  54  82 SE10      29.61F
PERU/GRISSOM   CLEAR     60  58  91 S13       29.61F
ROCHESTER +    CLEAR     64  55  72 SE12      29.61F
SOUTH BEND     PTCLDY    64  55  72 S12       29.60F
WARSAW +       CLEAR     61  54  77 S6        29.62F

$$

INZ006>009-017-018-025>027-260900-
NORTHEAST INDIANA

CITY           SKY/WX    TMP DP  RH WIND       PRES   REMARKS
ANGOLA *+      CLEAR     57  54  88 SE5       29.65F
AUBURN +       CLEAR     59  52  77 CALM      29.66F
FORT WAYNE     MOCLDY    59  53  80 SE8       29.66F
HUNTINGTON +   PTCLDY    60  55  85 S6        29.64F
KENDALLVILLE + PTCLDY    59  55  86 SE8       29.64F

$$

INZ028-029-035-036-043>045-051>053-260900-
WEST CENTRAL INDIANA

CITY           SKY/WX    TMP DP  RH WIND       PRES   REMARKS
CRAWFORDSVL +  PTCLDY    60  55  83 SE10      29.60F
GREENCASTLE +  CLEAR     59  54  82 SE8       29.62F
LAFAYETTE      PTCLDY    63  56  78 SE9G16    29.57F
TERRE HAUTE    MOCLDY    63  55  75 SE10      29.59F

$$

INZ030>032-037>040-046>048-054>057-064-065-260900-
CENTRAL INDIANA

CITY           SKY/WX    TMP DP  RH WIND       PRES   REMARKS
CP ATTERBURY + CLEAR     59  54  82 CALM      29.67F
FISHERS *+     CLEAR     59  57  94 SE9       29.64F
FRANKFORT +    MOCLDY    63  56  79 S10       29.63F
GREENWOOD *+   CLEAR     62  55  77 SE8       29.65F
INDIANAPOLIS   PTCLDY    61  55  81 SE12      29.62F
-EAGLE CREEK   CLEAR     63  55  75 SE7       29.62F
KOKOMO +       CLEAR     61  55  81 S13       29.64F
MARION +       CLEAR     59  54  82 S7        29.65F HAZE
MT COMFORT *+  CLEAR     59  54  82 SE7       29.66F
SHELBYVILLE    CLEAR     61  54  77 SE9       29.66F
ZIONSVILLE +   CLEAR     60  55  81 SE8       29.64F

$$

INZ033-034-041-042-049-050-058-059-260900-
EAST CENTRAL INDIANA

CITY           SKY/WX    TMP DP  RH WIND       PRES   REMARKS
MUNCIE         PTCLDY    64  55  72 S9        29.66F
RICHMOND +     CLEAR     54  52  94 S8        29.71R

$$

INZ060-061-067>069-081>083-085>088-260900-
SOUTHWEST INDIANA

CITY           SKY/WX    TMP DP  RH WIND       PRES   REMARKS
EVANSVILLE     CLEAR     63  56  78 SE7       29.62F
HUNTINGBURG *+ CLEAR     61  56  83 SE8       29.64F
WASHINGTON +   PTCLDY    61  54  76 MISG      29.61F

$$

INZ062-063-066-070>080-084-089>092-260900-
SOUTH CENTRAL AND SOUTHEAST INDIANA

CITY           SKY/WX    TMP DP  RH WIND       PRES   REMARKS
BEDFORD +      CLEAR     61  54  77 SE7       29.64
BLOOMINGTON    CLEAR     60  54  80 SE8       29.63F
MADISON *+     CLEAR     55  54  94 CALM      29.71S
NORTH VERNON + PTCLDY    57  54  88 SE3       29.68F
SEYMOUR +      CLEAR     59  55  88 SE7       29.67F

$$





USA.gov is the U.S. government's official web portal to all federal, state and local government web resources and services.